Flag for Poland Weather past 2 weeks in Szczecin, Poland

Now
66 °F

Clear.


Feels Like: 66 °F
Forecast: 58 / 87 °F
Wind: 5 mph from Northwest

Location: Szczecin Airport

Current Time: Aug 5, 2015 at 5:13:11 AM

Latest Report: Aug 5, 2015 at 5:00 AM


Visibility: 10 mi

Pressure: 29.98 "Hg

Humidity: 88%

Dew point: 63 °F

Location of SzczecinLocation

Historic Weather in Szczecin — Graph

°F

Szczecin temperature yesterday

Maximum temperature yesterday: 91 °F (at 3:30 PM)
Minimum temperature yesterday: 64 °F (at 5:00 AM)
Average temperature yesterday: 79 °F

Past Weeks' High & Low Weather Summary

 TemperatureHumidityPressure
High91 °F (Aug 4, 3:30 PM)100% (Jul 22, 2:00 AM)30.12 "Hg (Jul 22, 2:00 AM)
Low41 °F (Aug 1, 5:30 AM)28% (Aug 4, 3:30 PM)29.50 "Hg (Jul 25, 5:30 PM)
Average64 °F70%29.86 "Hg
* Reported Jul 21 4:00 AM — Aug 5 4:00 AM, Szczecin, Weather by CustomWeather, © 2015

Note: Actual official high and low records may vary slightly from our data, if they occured in-between our weather recording intervals... More about our weather records

Advertising

Szczecin weather history for previous 24 hours

 ConditionsComfort  
Time TempWeatherWind HumidityBarometerVisibility
4:00 AM
Wed, Aug 5
68 °FClear.5 mph83%29.98 "Hg10 mi
3:30 AM68 °FClear.3 mph83%29.98 "Hg10 mi
3:00 AM68 °FClear.6 mph83%29.95 "Hg10 mi
2:30 AM68 °FClear.8 mph83%29.95 "Hg10 mi
2:00 AM70 °FClear.10 mph78%29.95 "Hg10 mi
1:30 AM70 °FClear.14 mph78%29.92 "Hg10 mi
1:00 AM70 °FClear.10 mph83%29.92 "Hg10 mi
12:30 AM73 °FClear.16 mph69%29.89 "Hg10 mi
12:00 AM77 °FPassing clouds.10 mph54%29.86 "HgN/A
11:30 PM
Tue, Aug 4
77 °FClear.9 mph54%29.86 "Hg10 mi
11:00 PM77 °FClear.9 mph54%29.86 "Hg10 mi
10:30 PM77 °FClear.9 mph54%29.86 "Hg10 mi
10:00 PM77 °FClear.8 mph54%29.86 "Hg10 mi
9:30 PM77 °FSunny.8 mph54%29.86 "Hg10 mi
9:00 PM81 °FSunny.8 mph48%29.86 "Hg10 mi
8:30 PM84 °FSunny.8 mph40%29.86 "Hg10 mi
8:00 PM86 °FSunny.7 mph38%29.86 "Hg10 mi
7:30 PM88 °FSunny.7 mph35%29.86 "Hg10 mi
7:00 PM88 °FSunny.9 mph35%29.86 "Hg10 mi
6:30 PM90 °FSunny.9 mph33%29.86 "Hg10 mi
6:00 PM90 °FSunny.12 mph33%29.86 "Hg10 mi
5:30 PM90 °FSunny.13 mph29%29.86 "Hg10 mi
5:00 PM90 °FSunny.12 mph29%29.89 "Hg10 mi
4:30 PM90 °FPassing clouds.12 mph29%29.89 "HgN/A
4:00 PM90 °FSunny.14 mph29%29.89 "Hg10 mi
3:30 PM91 °FPassing clouds.12 mph28%29.89 "HgN/A
3:00 PM90 °FSunny.12 mph31%29.89 "Hg10 mi
2:30 PM90 °FPassing clouds.17 mph29%29.92 "HgN/A
2:00 PM90 °FPassing clouds.14 mph29%29.92 "HgN/A
1:30 PM90 °FPassing clouds.14 mph31%29.92 "HgN/A
1:00 PM88 °FSunny.14 mph33%29.95 "Hg10 mi
12:30 PM88 °FSunny.13 mph35%29.95 "Hg10 mi
12:00 PM86 °FSunny.12 mph35%29.95 "Hg10 mi
11:30 AM84 °FSunny.10 mph40%29.98 "Hg10 mi
11:00 AM82 °FSunny.12 mph40%29.98 "Hg10 mi
10:30 AM81 °FSunny.12 mph42%29.98 "Hg10 mi
10:00 AM79 °FSunny.12 mph48%29.98 "Hg10 mi
9:30 AM77 °FSunny.10 mph51%30.01 "Hg10 mi
9:00 AM75 °FSunny.12 mph54%30.01 "Hg10 mi
8:30 AM73 °FSunny.9 mph53%30.01 "Hg10 mi
8:00 AM72 °FSunny.9 mph57%30.01 "Hg10 mi
7:30 AM70 °FSunny.9 mph57%30.01 "Hg10 mi
7:00 AM70 °FSunny.9 mph57%30.01 "Hg10 mi
6:30 AM68 °FSunny.8 mph60%30.01 "Hg10 mi
6:00 AM68 °FClear.8 mph60%30.01 "Hg10 mi
5:30 AM66 °FClear.7 mph64%30.01 "Hg10 mi
5:00 AM64 °FClear.8 mph68%30.04 "Hg10 mi
Weather by CustomWeather, © 2015

See weather overviewHow to use our weather pages